WZZ973 EPGD-EFTU

Flight info

Callsign WZZ973
Flight time 1h 12m
Altitude 35000
Route VAPOS N133 MOTAD DCT PENOR DCT NISIX DCT EMPOM
Aircraft A321/M-SDE3FGHIRWY/LB1

Departure

Time 2026-04-18 07:54
Airport Gdańsk Lech Wałęsa Airport (EPGD)

Arrival

Time 2026-04-18 09:06
Airport Turku Airport (EFTU)
Time Latitude Longitude Altitude Speed Heading
2026-04-18 07:32 54.38069 18.46384 457 ft 0 kts 23°
2026-04-18 07:47 54.38070 18.46385 460 ft 1 kts 23°
2026-04-18 07:48 54.38079 18.46392 460 ft 1 kts 23°
2026-04-18 07:48 54.38096 18.46404 460 ft 4 kts 23°
2026-04-18 07:48 54.38108 18.46444 460 ft 5 kts 92°
2026-04-18 07:48 54.38093 18.46507 458 ft 7 kts 113°
2026-04-18 07:49 54.38072 18.46591 460 ft 8 kts 117°
2026-04-18 07:49 54.38019 18.46607 460 ft 9 kts 200°
2026-04-18 07:49 54.37954 18.46586 458 ft 10 kts 157°
2026-04-18 07:49 54.37917 18.46699 458 ft 12 kts 113°
2026-04-18 07:50 54.37881 18.46843 460 ft 14 kts 113°
2026-04-18 07:50 54.37840 18.47008 460 ft 16 kts 113°
2026-04-18 07:50 54.37794 18.47193 460 ft 18 kts 113°
2026-04-18 07:50 54.37744 18.47396 458 ft 19 kts 113°
2026-04-18 07:51 54.37693 18.47601 464 ft 19 kts 113°
2026-04-18 07:51 54.37644 18.47801 468 ft 18 kts 113°
2026-04-18 07:51 54.37595 18.47995 472 ft 17 kts 113°
2026-04-18 07:51 54.37550 18.48181 472 ft 16 kts 113°
2026-04-18 07:52 54.37507 18.48353 477 ft 15 kts 113°
2026-04-18 07:52 54.37466 18.48518 484 ft 14 kts 113°
2026-04-18 07:52 54.37426 18.48649 485 ft 8 kts 148°
2026-04-18 07:52 54.37367 18.48638 491 ft 9 kts 205°
2026-04-18 07:53 54.37304 18.48588 485 ft 10 kts 204°
2026-04-18 07:53 54.37283 18.48531 490 ft 4 kts 281°
2026-04-18 07:53 54.37288 18.48512 483 ft 3 kts 294°
2026-04-18 07:53 54.37336 18.48321 476 ft 50 kts 293°
2026-04-18 07:54 54.37589 18.47304 463 ft 131 kts 293°
2026-04-18 07:54 54.38010 18.45619 770 ft 162 kts 296°
2026-04-18 07:54 54.38475 18.43816 1641 ft 168 kts 296°
2026-04-18 07:54 54.38970 18.41858 2278 ft 188 kts 295°
2026-04-18 07:55 54.39486 18.39733 3021 ft 197 kts 293°
2026-04-18 07:55 54.40017 18.37492 3679 ft 208 kts 293°
2026-04-18 07:55 54.40574 18.35145 4332 ft 216 kts 294°
2026-04-18 07:55 54.41172 18.32669 4865 ft 236 kts 294°
2026-04-18 07:56 54.41834 18.29951 5468 ft 255 kts 294°
2026-04-18 07:56 54.42653 18.27177 6223 ft 266 kts 309°
2026-04-18 07:56 54.44104 18.25191 6995 ft 272 kts 333°
2026-04-18 07:56 54.45786 18.23653 7876 ft 275 kts 330°
2026-04-18 07:57 54.47436 18.21956 8775 ft 279 kts 328°
2026-04-18 07:57 54.49081 18.20169 9680 ft 282 kts 327°
2026-04-18 07:57 54.50756 18.18329 10508 ft 287 kts 327°
2026-04-18 07:57 54.52506 18.16418 10881 ft 309 kts 327°
2026-04-18 07:58 54.56336 18.12283 11873 ft 337 kts 328°
2026-04-18 07:58 54.58336 18.10138 12657 ft 341 kts 328°
2026-04-18 07:58 54.60310 18.07834 13458 ft 344 kts 322°
2026-04-18 07:59 54.62225 18.05336 14250 ft 347 kts 322°
2026-04-18 07:59 54.64158 18.02815 14983 ft 349 kts 322°
2026-04-18 07:59 54.66107 18.00271 15723 ft 352 kts 322°
2026-04-18 07:59 54.68072 17.97706 16460 ft 355 kts 323°
2026-04-18 08:00 54.70050 17.95124 17194 ft 358 kts 323°
2026-04-18 08:00 54.72050 17.92510 17919 ft 362 kts 323°
2026-04-18 08:00 54.74063 17.89870 18620 ft 365 kts 323°
2026-04-18 08:00 54.76095 17.87196 19245 ft 368 kts 323°
2026-04-18 08:01 54.78138 17.84502 19885 ft 371 kts 323°
2026-04-18 08:01 54.80308 17.82078 20516 ft 373 kts 333°
2026-04-18 08:01 54.82606 17.80236 21150 ft 375 kts 335°
2026-04-18 08:01 54.84995 17.78373 21803 ft 377 kts 335°
2026-04-18 08:02 54.87400 17.76494 22451 ft 380 kts 335°
2026-04-18 08:02 54.89816 17.74595 23080 ft 382 kts 335°
2026-04-18 08:02 54.92242 17.72677 23676 ft 385 kts 335°
2026-04-18 08:02 54.94687 17.70737 24189 ft 388 kts 335°
2026-04-18 08:03 54.97149 17.68787 24697 ft 389 kts 335°
2026-04-18 08:03 54.99625 17.66846 25199 ft 391 kts 335°
2026-04-18 08:03 55.02116 17.64934 25706 ft 392 kts 336°
2026-04-18 08:03 55.04625 17.63032 26203 ft 394 kts 336°
2026-04-18 08:04 55.07112 17.61154 26684 ft 396 kts 336°
2026-04-18 08:04 55.09678 17.59213 27171 ft 397 kts 336°
2026-04-18 08:04 55.12217 17.57285 27651 ft 399 kts 336°
2026-04-18 08:04 55.14730 17.55365 28117 ft 401 kts 336°
2026-04-18 08:05 55.17286 17.53398 28585 ft 402 kts 335°
2026-04-18 08:05 55.19852 17.51415 29039 ft 404 kts 335°
2026-04-18 08:05 55.22434 17.49414 29474 ft 406 kts 335°
2026-04-18 08:05 55.25017 17.47382 29894 ft 408 kts 335°
2026-04-18 08:06 55.27609 17.45316 30328 ft 410 kts 335°
2026-04-18 08:06 55.30212 17.43227 30696 ft 412 kts 335°
2026-04-18 08:06 55.32821 17.41131 31066 ft 414 kts 335°
2026-04-18 08:06 55.35444 17.39026 31426 ft 415 kts 335°
2026-04-18 08:07 55.38072 17.36920 31940 ft 413 kts 334°
2026-04-18 08:07 55.40681 17.34829 32463 ft 411 kts 334°
2026-04-18 08:07 55.43276 17.32750 32981 ft 408 kts 334°
2026-04-18 08:07 55.45861 17.30680 33493 ft 406 kts 334°
2026-04-18 08:08 55.48425 17.28618 34003 ft 404 kts 334°
2026-04-18 08:08 55.50974 17.26565 34477 ft 402 kts 334°
2026-04-18 08:08 55.53518 17.24512 34861 ft 402 kts 334°
2026-04-18 08:08 55.56030 17.22483 35189 ft 403 kts 334°
2026-04-18 08:09 55.58608 17.20562 35262 ft 402 kts 339°
2026-04-18 08:09 55.64057 17.18637 35278 ft 403 kts 355°
2026-04-18 08:09 55.66865 17.19054 35278 ft 409 kts
2026-04-18 08:10 55.69596 17.20600 35274 ft 416 kts 19°
2026-04-18 08:10 55.74870 17.24891 35273 ft 417 kts 19°
2026-04-18 08:11 55.80154 17.29165 35278 ft 417 kts 19°
2026-04-18 08:11 55.85444 17.33411 35287 ft 417 kts 19°
2026-04-18 08:12 55.90737 17.37656 35297 ft 418 kts 19°
2026-04-18 08:12 55.96035 17.41933 35301 ft 418 kts 19°
2026-04-18 08:13 56.01335 17.46223 35302 ft 418 kts 19°
2026-04-18 08:13 56.06626 17.50529 35304 ft 418 kts 19°
2026-04-18 08:14 56.11890 17.54830 35294 ft 418 kts 19°
2026-04-18 08:14 56.17178 17.59155 35302 ft 418 kts 19°
2026-04-18 08:15 56.22463 17.63497 35302 ft 417 kts 19°
2026-04-18 08:15 56.27740 17.67848 35305 ft 417 kts 19°
2026-04-18 08:16 56.33016 17.72208 35303 ft 417 kts 19°
2026-04-18 08:16 56.38290 17.76579 35299 ft 417 kts 19°
2026-04-18 08:17 56.43522 17.80924 35302 ft 417 kts 19°
2026-04-18 08:17 56.48788 17.85306 35302 ft 417 kts 19°
2026-04-18 08:18 56.54054 17.89700 35303 ft 417 kts 19°
2026-04-18 08:18 56.59314 17.94114 35300 ft 416 kts 19°
2026-04-18 08:19 56.64571 17.98538 35305 ft 416 kts 19°
2026-04-18 08:19 56.69823 18.02971 35301 ft 416 kts 19°
2026-04-18 08:20 56.75076 18.07419 35301 ft 416 kts 19°
2026-04-18 08:20 56.80320 18.11874 35304 ft 416 kts 19°
2026-04-18 08:21 56.85563 18.16339 35306 ft 416 kts 20°
2026-04-18 08:21 56.90804 18.20810 35301 ft 416 kts 20°
2026-04-18 08:22 56.96008 18.25263 35299 ft 416 kts 20°
2026-04-18 08:22 57.01243 18.29760 35303 ft 415 kts 20°
2026-04-18 08:23 57.06475 18.34269 35304 ft 415 kts 20°
2026-04-18 08:23 57.11703 18.38801 35307 ft 415 kts 20°
2026-04-18 08:24 57.16934 18.43341 35306 ft 415 kts 20°
2026-04-18 08:24 57.22162 18.47894 35304 ft 415 kts 20°
2026-04-18 08:25 57.27384 18.52459 35300 ft 415 kts 20°
2026-04-18 08:25 57.32609 18.57036 35300 ft 415 kts 20°
2026-04-18 08:26 57.37830 18.61613 35304 ft 415 kts 20°
2026-04-18 08:26 57.43024 18.66186 35311 ft 415 kts 20°
2026-04-18 08:27 57.48238 18.70810 35300 ft 415 kts 20°
2026-04-18 08:27 57.53451 18.75432 35304 ft 415 kts 20°
2026-04-18 08:28 57.58666 18.80061 35298 ft 415 kts 20°
2026-04-18 08:28 57.63875 18.84700 35303 ft 415 kts 20°
2026-04-18 08:29 57.68202 18.88578 35301 ft 415 kts 20°
2026-04-18 08:29 57.73406 18.93249 35303 ft 415 kts 20°
2026-04-18 08:30 57.78605 18.97944 35299 ft 415 kts 20°
2026-04-18 08:30 57.83805 19.02654 35303 ft 415 kts 20°
2026-04-18 08:31 57.89003 19.07358 35300 ft 415 kts 20°
2026-04-18 08:31 57.94166 19.12040 35300 ft 415 kts 20°
2026-04-18 08:32 57.99359 19.16784 35297 ft 415 kts 21°
2026-04-18 08:32 58.04546 19.21545 35302 ft 415 kts 21°
2026-04-18 08:33 58.09735 19.26318 35301 ft 415 kts 21°
2026-04-18 08:33 58.14920 19.31096 35300 ft 414 kts 21°
2026-04-18 08:34 58.20103 19.35876 35299 ft 414 kts 21°
2026-04-18 08:34 58.25283 19.40670 35299 ft 414 kts 21°
2026-04-18 08:35 58.30426 19.45447 35299 ft 414 kts 21°
2026-04-18 08:35 58.35594 19.50275 35296 ft 414 kts 21°
2026-04-18 08:36 58.40762 19.55127 35299 ft 414 kts 21°
2026-04-18 08:36 58.45925 19.59988 35297 ft 414 kts 21°
2026-04-18 08:37 58.51086 19.64854 35297 ft 413 kts 21°
2026-04-18 08:37 58.56245 19.69717 35295 ft 413 kts 21°
2026-04-18 08:38 58.61402 19.74603 35296 ft 413 kts 21°
2026-04-18 08:38 58.66550 19.79515 35294 ft 413 kts 21°
2026-04-18 08:39 58.71701 19.84443 35295 ft 413 kts 21°
2026-04-18 08:39 58.76847 19.89378 35293 ft 413 kts 21°
2026-04-18 08:40 58.81993 19.94324 35293 ft 413 kts 21°
2026-04-18 08:40 58.85400 19.97612 35293 ft 413 kts 21°
2026-04-18 08:41 58.92275 20.04263 35295 ft 413 kts 21°
2026-04-18 08:41 58.97414 20.09256 35123 ft 413 kts 21°
2026-04-18 08:41 58.99976 20.11752 34882 ft 411 kts 21°
2026-04-18 08:42 59.02491 20.14206 34653 ft 410 kts 21°
2026-04-18 08:42 59.05037 20.16688 34417 ft 409 kts 21°
2026-04-18 08:42 59.07577 20.19172 34172 ft 408 kts 21°
2026-04-18 08:42 59.10111 20.21659 33897 ft 408 kts 21°
2026-04-18 08:43 59.12650 20.24154 33620 ft 408 kts 21°
2026-04-18 08:43 59.15167 20.26635 33208 ft 404 kts 21°
2026-04-18 08:43 59.17663 20.29099 32720 ft 400 kts 21°
2026-04-18 08:43 59.20133 20.31540 32238 ft 396 kts 21°
2026-04-18 08:44 59.22577 20.33959 31762 ft 392 kts 21°
2026-04-18 08:44 59.24999 20.36358 31288 ft 389 kts 21°
2026-04-18 08:44 59.27396 20.38737 30818 ft 385 kts 22°
2026-04-18 08:44 59.29782 20.41111 30328 ft 383 kts 22°
2026-04-18 08:45 59.32122 20.43581 29781 ft 383 kts 27°
2026-04-18 08:45 59.34310 20.46544 29299 ft 381 kts 30°
2026-04-18 08:45 59.36462 20.49530 28822 ft 378 kts 30°
2026-04-18 08:45 59.38600 20.52497 28321 ft 375 kts 30°
2026-04-18 08:46 59.40723 20.55444 27846 ft 372 kts 30°
2026-04-18 08:46 59.42834 20.58378 27376 ft 370 kts 30°
2026-04-18 08:46 59.44932 20.61299 26913 ft 369 kts 30°
2026-04-18 08:46 59.46997 20.64181 26460 ft 368 kts 30°
2026-04-18 08:47 59.49077 20.67085 26017 ft 366 kts 30°
2026-04-18 08:47 59.51150 20.69983 25569 ft 364 kts 30°
2026-04-18 08:47 59.53213 20.72867 25144 ft 362 kts 31°
2026-04-18 08:47 59.55262 20.75740 24711 ft 361 kts 31°
2026-04-18 08:48 59.57300 20.78603 24294 ft 359 kts 31°
2026-04-18 08:48 59.59323 20.81454 23882 ft 357 kts 31°
2026-04-18 08:48 59.61335 20.84297 23410 ft 354 kts 31°
2026-04-18 08:48 59.63324 20.87115 22987 ft 350 kts 31°
2026-04-18 08:49 59.65286 20.89899 22570 ft 345 kts 31°
2026-04-18 08:49 59.67229 20.92657 22140 ft 342 kts 31°
2026-04-18 08:49 59.69146 20.95376 21718 ft 338 kts 31°
2026-04-18 08:49 59.71050 20.98075 21291 ft 335 kts 31°
2026-04-18 08:50 59.72937 21.00756 20862 ft 332 kts 31°
2026-04-18 08:50 59.74807 21.03422 20428 ft 330 kts 32°
2026-04-18 08:50 59.76663 21.06069 19984 ft 327 kts 32°
2026-04-18 08:50 59.78506 21.08701 19550 ft 325 kts 32°
2026-04-18 08:51 59.80336 21.11319 19109 ft 324 kts 32°
2026-04-18 08:51 59.82158 21.13931 18661 ft 322 kts 32°
2026-04-18 08:51 59.83973 21.16534 18186 ft 320 kts 32°
2026-04-18 08:51 59.85748 21.19082 17753 ft 318 kts 32°
2026-04-18 08:52 59.87529 21.21644 17313 ft 315 kts 32°
2026-04-18 08:52 59.89296 21.24194 16882 ft 312 kts 33°
2026-04-18 08:52 59.91051 21.26725 16437 ft 310 kts 33°
2026-04-18 08:52 59.92791 21.29236 16020 ft 308 kts 33°
2026-04-18 08:53 59.94523 21.31737 15595 ft 306 kts 33°
2026-04-18 08:53 59.96246 21.34232 15170 ft 305 kts 33°
2026-04-18 08:53 59.97959 21.36713 14742 ft 304 kts 33°
2026-04-18 08:53 59.99670 21.39194 14319 ft 303 kts 33°
2026-04-18 08:54 60.01371 21.41665 13874 ft 302 kts 34°
2026-04-18 08:54 60.03067 21.44134 13447 ft 300 kts 34°
2026-04-18 08:54 60.04743 21.46580 13023 ft 297 kts 34°
2026-04-18 08:54 60.06407 21.49011 12621 ft 295 kts 34°
2026-04-18 08:55 60.08061 21.51428 12204 ft 293 kts 34°
2026-04-18 08:55 60.09704 21.53837 11795 ft 292 kts 34°
2026-04-18 08:55 60.11340 21.56235 11391 ft 291 kts 34°
2026-04-18 08:55 60.12977 21.58635 10988 ft 291 kts 34°
2026-04-18 08:56 60.14607 21.61027 10604 ft 290 kts 34°
2026-04-18 08:56 60.16212 21.63385 10436 ft 282 kts 34°
2026-04-18 08:56 60.17779 21.65693 10226 ft 277 kts 34°
2026-04-18 08:56 60.19318 21.67966 10090 ft 275 kts 34°
2026-04-18 08:57 60.22529 21.72207 9367 ft 277 kts 25°
2026-04-18 08:57 60.24240 21.73933 8952 ft 277 kts 25°
2026-04-18 08:57 60.25946 21.75681 8585 ft 276 kts 26°
2026-04-18 08:58 60.27638 21.77424 8339 ft 269 kts 26°
2026-04-18 08:58 60.29280 21.79115 8104 ft 263 kts 26°
2026-04-18 08:58 60.30903 21.80786 7754 ft 262 kts 26°
2026-04-18 08:58 60.32517 21.82449 7400 ft 258 kts 26°
2026-04-18 08:59 60.34079 21.84068 6812 ft 251 kts 26°
2026-04-18 08:59 60.35595 21.85638 6418 ft 238 kts 26°
2026-04-18 08:59 60.37023 21.87112 6103 ft 223 kts 27°
2026-04-18 08:59 60.38363 21.88494 5787 ft 211 kts 27°
2026-04-18 09:00 60.39632 21.89799 5506 ft 200 kts 28°
2026-04-18 09:00 60.40896 21.90914 5262 ft 196 kts 19°
2026-04-18 09:00 60.42205 21.91419 4986 ft 187 kts
2026-04-18 09:00 60.43484 21.91338 4695 ft 182 kts 356°
2026-04-18 09:01 60.44728 21.91090 4424 ft 178 kts 357°
2026-04-18 09:01 60.45946 21.90853 4175 ft 174 kts 357°
2026-04-18 09:01 60.47145 21.90621 3924 ft 173 kts 357°
2026-04-18 09:01 60.48329 21.90822 3659 ft 170 kts 21°
2026-04-18 09:02 60.49300 21.92067 3408 ft 163 kts 48°
2026-04-18 09:02 60.49878 21.93967 3181 ft 159 kts 72°
2026-04-18 09:02 60.50045 21.96173 2950 ft 156 kts 85°
2026-04-18 09:02 60.50138 21.98326 2720 ft 150 kts 86°
2026-04-18 09:03 60.50234 22.00426 2517 ft 147 kts 86°
2026-04-18 09:03 60.50327 22.02445 2315 ft 139 kts 86°
2026-04-18 09:03 60.50417 22.04351 2086 ft 134 kts 87°
2026-04-18 09:03 60.50505 22.06208 1894 ft 131 kts 87°
2026-04-18 09:04 60.50591 22.08049 1741 ft 132 kts 87°
2026-04-18 09:04 60.50672 22.09882 1509 ft 129 kts 88°
2026-04-18 09:04 60.50753 22.11707 1312 ft 130 kts 88°
2026-04-18 09:04 60.50828 22.13511 1097 ft 130 kts 88°
2026-04-18 09:05 60.50909 22.15335 902 ft 130 kts 85°
2026-04-18 09:05 60.50999 22.17168 856 ft 131 kts 87°
2026-04-18 09:05 60.51081 22.19016 679 ft 132 kts 87°
2026-04-18 09:05 60.51168 22.20864 485 ft 132 kts 85°
2026-04-18 09:06 60.51256 22.22708 320 ft 130 kts 85°
2026-04-18 09:06 60.51336 22.24530 156 ft 124 kts 85°
2026-04-18 09:06 60.51398 22.26003 167 ft 82 kts 85°
2026-04-18 09:06 60.51436 22.26797 170 ft 28 kts 84°
2026-04-18 09:07 60.51431 22.27017 170 ft 11 kts 124°
2026-04-18 09:07 60.51389 22.27050 170 ft 2 kts 178°
2026-04-18 09:07 60.51372 22.27051 171 ft 3 kts 179°
2026-04-18 09:07 60.51352 22.27052 171 ft 3 kts 177°
2026-04-18 09:08 60.51337 22.27073 172 ft 3 kts 136°
2026-04-18 09:08 60.51327 22.27119 172 ft 4 kts 97°
2026-04-18 09:08 60.51330 22.27203 171 ft 8 kts 85°
2026-04-18 09:08 60.51319 22.27302 171 ft 5 kts 150°
2026-04-18 09:09 60.51291 22.27298 172 ft 4 kts 201°
2026-04-18 09:09 60.51273 22.27278 173 ft 3 kts 210°
2026-04-18 09:09 60.51258 22.27262 173 ft 2 kts 202°
2026-04-18 09:09 60.51235 22.27272 174 ft 5 kts 156°
2026-04-18 09:10 60.51203 22.27309 175 ft 6 kts 149°
2026-04-18 09:10 60.51186 22.27330 175 ft 3 kts 149°
2026-04-18 09:10 60.51181 22.27336 175 ft 0 kts 149°